Total_Precipitation_Accumulation
0.83 0.87 0.82 0.85 0.77 0.76 0.87 0.94 0.96 0.97 0.87 0.74 0.69 0.70 0.75 0.69 0.66 0.75 0.96 1.23 1.64 1.97 2.06 1.87 1.67 1.56 1.48 1.47 1.62 1.82 2.12 2.26 2.11 2.02 1.84 1.72 1.91 2.04 1.68 1.54 1.53 1.53 1.63
0.88 0.93 0.89 0.89 0.87 0.81 0.85 1.04 0.99 1.02 0.99 0.91 0.76 0.74 0.77 0.73 0.69 0.72 0.84 1.10 1.31 1.54 1.87 2.10 1.93 1.74 1.56 1.50 1.56 1.75 2.12 2.19 1.93 1.87 1.85 1.78 1.97 2.04 1.74 1.58 1.48 1.38 1.53
0.83 0.87 0.89 0.87 0.87 0.89 0.91 0.99 1.00 1.05 0.95 0.90 0.85 0.80 0.77 0.73 0.64 0.71 0.73 0.84 0.87 1.06 1.38 1.71 1.90 1.86 1.78 1.72 1.70 1.86 2.13 2.07 1.83 1.83 1.90 1.84 1.82 1.88 1.82 1.67 1.51 1.38 1.43
0.90 0.90 0.95 0.96 1.00 1.05 1.04 1.06 1.11 1.11 1.06 1.04 1.02 1.00 0.83 0.82 0.72 0.72 0.72 0.74 0.82 0.79 0.94 1.11 1.37 1.59 1.79 1.90 2.04 2.22 2.12 1.94 1.77 1.76 1.85 1.76 1.67 1.78 1.83 1.74 1.51 1.38 1.36
0.95 1.06 1.10 1.16 1.14 1.17 1.20 1.17 1.20 1.11 1.13 1.15 1.06 1.04 0.94 0.92 0.86 0.73 0.79 0.82 0.84 0.79 0.82 0.73 0.79 0.91 1.19 1.56 2.08 2.38 2.08 1.95 1.86 1.71 1.68 1.65 1.69 1.84 1.86 1.65 1.47 1.35 1.31
1.26 1.41 1.49 1.43 1.43 1.45 1.45 1.41 1.48 1.37 1.21 1.23 1.14 1.07 0.95 0.86 0.91 0.89 0.87 0.86 0.91 0.87 0.81 0.71 0.67 0.57 0.67 1.04 1.66 2.10 2.06 1.99 1.87 1.81 1.71 1.67 1.75 1.86 1.84 1.68 1.51 1.48 1.42
1.63 1.76 1.70 1.79 1.82 1.70 1.71 1.77 1.83 1.78 1.54 1.41 1.48 1.37 1.08 0.84 0.89 0.88 0.85 0.89 0.95 1.05 1.08 0.95 0.80 0.72 0.67 0.75 1.12 1.61 1.97 2.02 2.05 1.92 1.81 1.79 1.77 1.79 1.80 1.76 1.71 1.65 1.59
1.86 1.90 1.99 2.09 2.13 2.12 2.08 1.97 2.06 2.17 1.91 1.69 1.81 2.09 1.68 1.27 0.91 0.72 0.81 0.86 0.96 1.19 1.26 1.08 0.89 0.81 0.79 0.87 0.78 1.04 1.47 1.88 2.06 2.06 1.97 1.92 1.92 1.94 1.93 1.74 1.63 1.66 1.69
2.09 2.12 2.18 2.26 2.29 2.14 2.14 2.23 2.34 2.68 2.50 2.15 1.94 2.18 1.99 1.67 1.35 0.93 0.85 0.90 0.99 1.16 1.28 1.30 1.18 1.10 1.01 1.02 0.97 0.79 0.98 1.39 1.76 2.06 2.13 2.07 1.98 2.16 2.26 1.94 1.65 1.56 1.53
2.03 2.15 2.16 2.16 2.15 2.10 2.17 2.23 2.27 2.66 2.86 2.58 2.24 1.87 1.65 1.62 1.69 1.39 1.01 0.96 1.05 1.06 1.18 1.26 1.21 1.26 1.25 1.25 1.22 0.96 0.89 1.11 1.42 1.87 2.20 2.40 2.19 2.01 1.99 1.98 1.85 1.64 1.46
1.90 1.93 1.95 2.04 2.08 2.13 2.18 2.35 2.47 2.71 2.75 2.74 2.55 2.35 2.12 1.82 1.48 1.52 1.45 1.20 1.16 1.07 1.16 1.29 1.33 1.40 1.43 1.45 1.56 1.29 1.01 0.90 1.08 1.50 2.01 2.44 2.46 2.26 2.05 1.93 1.88 1.83 1.59
1.87 1.81 1.78 1.85 1.98 2.14 2.20 2.29 2.44 2.67 2.79 2.87 2.79 2.52 2.42 2.25 1.95 1.82 1.57 1.42 1.42 1.22 1.19 1.23 1.28 1.40 1.55 1.63 1.58 1.68 1.35 0.95 0.85 1.13 1.47 1.93 2.37 2.53 2.44 2.32 2.19 2.15 1.97
1.59 1.62 1.69 1.79 1.93 2.05 2.12 2.24 2.38 2.43 2.55 2.79 2.80 2.62 2.41 2.19 2.16 2.06 1.94 1.62 1.45 1.28 1.26 1.25 1.21 1.27 1.30 1.57 1.69 1.77 1.44 1.09 0.83 0.85 1.02 1.24 1.58 2.03 2.42 2.50 2.49 2.56 2.54
1.50 1.43 1.47 1.58 1.81 2.00 2.08 2.18 2.19 2.17 2.22 2.41 2.41 2.47 2.44 2.15 2.08 1.99 1.98 2.05 1.78 1.58 1.42 1.24 1.13 1.18 1.23 1.42 1.72 1.79 1.36 1.16 0.95 0.82 0.86 1.04 1.13 1.25 1.61 2.16 2.48 2.62 2.82
1.31 1.25 1.26 1.30 1.44 1.66 1.92 2.08 2.02 1.94 1.90 2.06 2.13 2.22 2.33 2.34 2.24 2.15 2.12 2.17 2.12 1.86 1.67 1.45 1.23 1.11 1.18 1.30 1.69 1.62 1.41 1.24 1.11 0.96 0.88 0.94 0.93 0.97 1.09 1.38 1.69 1.85 2.03
1.11 1.10 1.10 1.16 1.28 1.39 1.60 1.84 1.94 1.87 1.84 1.91 2.02 2.14 2.26 2.37 2.40 2.21 2.17 2.14 2.00 1.91 1.75 1.46 1.23 1.14 1.21 1.20 1.53 1.55 1.51 1.49 1.25 1.09 1.02 0.99 1.00 0.92 0.94 1.06 1.16 1.20 1.16
0.90 0.93 1.10 1.16 1.22 1.29 1.48 1.74 1.91 1.92 1.85 1.86 1.84 1.91 2.08 2.16 2.37 2.33 2.25 2.14 2.01 1.85 1.72 1.56 1.34 1.18 1.22 1.27 1.37 1.48 1.49 1.39 1.20 1.16 1.03 0.99 0.98 0.97 0.94 1.00 1.12 1.05 0.95
0.65 0.77 0.91 0.96 1.00 1.05 1.23 1.52 1.71 1.75 1.72 1.64 1.62 1.74 1.95 2.12 2.33 2.41 2.36 2.22 2.13 2.00 1.89 1.82 1.64 1.42 1.30 1.34 1.43 1.54 1.53 1.46 1.37 1.36 1.22 1.10 1.03 0.97 0.97 0.96 1.03 1.09 1.04
0.66 0.78 0.87 0.92 0.94 1.00 1.04 1.15 1.31 1.43 1.41 1.36 1.39 1.46 1.51 1.71 2.00 2.16 2.17 2.19 2.22 2.20 2.17 2.02 1.82 1.68 1.53 1.43 1.49 1.53 1.53 1.58 1.44 1.44 1.42 1.33 1.26 1.18 1.09 1.03 1.02 1.04 1.08
0.61 0.70 0.78 0.84 0.91 0.97 0.98 0.99 1.01 1.08 1.09 1.15 1.20 1.25 1.30 1.35 1.58 1.75 1.83 2.01 2.24 2.26 2.28 2.21 1.98 1.81 1.67 1.54 1.60 1.69 1.77 1.76 1.59 1.38 1.37 1.31 1.35 1.31 1.20 1.04 0.98 0.97 1.02
0.53 0.60 0.67 0.70 0.76 0.85 0.94 0.97 0.84 0.80 0.88 0.99 1.02 0.99 1.01 1.09 1.22 1.32 1.39 1.74 2.08 2.27 2.26 2.22 2.07 1.96 1.70 1.57 1.44 1.45 1.67 1.91 1.89 1.77 1.65 1.40 1.34 1.27 1.20 1.14 1.03 0.97 0.98
0.50 0.55 0.54 0.58 0.69 0.73 0.88 0.87 0.71 0.69 0.72 0.81 0.90 0.90 0.80 0.78 0.83 0.91 0.99 1.16 1.44 1.68 1.96 2.14 2.07 1.87 1.65 1.55 1.50 1.52 1.57 1.70 1.85 1.74 1.77 1.75 1.65 1.59 1.49 1.35 1.33 1.23 1.13
0.47 0.49 0.48 0.49 0.55 0.68 0.73 0.59 0.58 0.62 0.68 0.72 0.77 0.84 0.77 0.67 0.74 0.79 0.88 0.95 0.96 1.04 1.33 1.67 1.79 1.74 1.81 1.69 1.65 1.58 1.55 1.63 1.67 1.63 1.78 1.84 1.80 1.75 1.67 1.64 1.71 1.56 1.39
0.54 0.53 0.54 0.54 0.53 0.59 0.58 0.48 0.51 0.54 0.60 0.64 0.72 0.81 0.87 0.79 0.79 0.90 0.90 0.93 0.89 0.85 1.04 1.05 1.21 1.50 1.69 1.78 1.75 1.83 1.99 1.95 1.81 1.67 1.62 1.68 1.59 1.57 1.59 1.59 1.69 1.61 1.50
0.52 0.55 0.59 0.59 0.54 0.52 0.53 0.45 0.47 0.53 0.58 0.63 0.64 0.69 0.77 0.75 0.90 0.99 0.99 1.12 1.10 0.98 1.10 1.16 1.19 1.22 1.35 1.51 1.63 1.71 1.80 1.86 1.83 1.72 1.52 1.39 1.34 1.34 1.40 1.41 1.42 1.49 1.47
0.31 0.41 0.44 0.47 0.51 0.50 0.62 0.50 0.50 0.53 0.62 0.72 0.73 0.71 0.84 0.84 0.91 0.91 0.89 1.12 1.14 1.02 0.94 1.01 1.02 0.99 0.93 1.04 1.26 1.43 1.64 1.75 1.72 1.63 1.38 1.24 1.21 1.24 1.23 1.10 1.01 1.05 1.06